Date,TemperatureHighF,TemperatureAvgF,TemperatureLowF,DewpointHighF,DewpointAvgF,DewpointLowF,HumidityHigh,HumidityAvg,HumidityLow,PressureMaxIn,PressureMinIn,WindSpeedMaxMPH,WindSpeedAvgMPH,GustSpeedMaxMPH,PrecipitationSumIn
2013-6-1,91,77,66,69,67,63,90,72,48,29.93,29.74,18,4,0,0.00
2013-6-2,79,72,58,68,63,52,92,76,49,29.83,29.66,18,6,0,0.17
2013-6-3,63,56,51,52,46,42,83,68,50,29.99,29.84,15,6,0,0.00
2013-6-4,66,57,48,46,42,34,85,60,31,30.14,29.99,18,5,0,0.00
2013-6-5,70,59,51,51,45,41,75,61,44,30.20,30.07,11,3,0,0.00
2013-6-6,58,56,54,56,52,45,96,87,63,30.08,29.84,10,4,0,2.03
2013-6-7,64,60,56,62,59,55,96,95,92,29.84,29.76,7,3,0,0.16
2013-6-8,64,60,56,61,57,55,97,92,82,30.05,29.76,10,3,0,0.03
2013-6-9,77,65,55,59,56,53,94,74,48,30.17,30.05,8,2,0,0.00
2013-6-10,68,63,59,64,60,56,96,89,77,30.11,29.70,12,6,0,0.27
2013-6-11,67,64,59,64,61,54,96,89,76,29.79,29.61,20,7,0,0.53
2013-6-12,76,65,54,59,55,52,93,73,48,29.91,29.77,11,3,0,0.00
2013-6-13,64,60,56,59,57,55,95,90,79,29.77,29.50,15,5,0,1.94
2013-6-14,73,63,54,59,56,52,96,79,58,29.93,29.74,14,6,0,0.00
2013-6-15,76,66,55,58,53,46,92,67,39,30.02,29.92,11,4,0,0.00
2013-6-16,74,66,60,67,60,54,93,82,71,29.92,29.67,11,4,0,0.26
2013-6-17,79,69,61,65,62,58,91,78,53,29.90,29.80,14,3,0,0.07
2013-6-18,68,62,55,58,52,46,93,74,49,30.00,29.86,14,4,0,0.01
2013-6-19,68,59,50,50,45,40,91,63,37,30.18,30.00,11,3,0,0.00
2013-6-20,78,61,44,55,47,41,94,63,35,30.24,30.18,10,2,0,0.00
2013-6-21,84,67,49,60,53,46,92,65,35,30.25,30.14,9,2,0,0.00
2013-6-22,89,74,61,74,66,57,92,77,45,30.15,29.97,8,2,0,0.02
2013-6-23,90,77,69,75,70,66,92,81,56,30.03,29.96,10,4,0,1.32
2013-6-24,91,80,67,72,68,64,94,69,47,29.99,29.90,11,3,0,0.00
2013-6-25,84,77,68,72,67,64,90,73,60,29.91,29.75,12,4,0,0.00
2013-6-26,86,76,70,72,68,65,87,75,57,29.79,29.74,10,3,0,0.00
2013-6-27,81,73,65,72,68,63,95,84,70,29.78,29.58,9,2,0,0.04
2013-6-28,68,65,62,66,63,60,96,93,85,29.57,29.47,9,3,0,0.56
2013-6-29,77,68,62,66,63,61,96,86,62,29.67,29.48,9,2,0,0.01
2013-6-30,79,71,64,67,64,62,95,80,62,29.90,29.66,11,3,0,0.00